Погода в Лейдене

Нидерланды     52°09′36″N   4°28′55″E
темп.,
°C
ветер,
м/с
пор.,
м/с
влажн.,
%
обл.,
%
осадки,
мм/ч
давл.,
гПа
погр.,
м
13 июня, вс
вс1323:00+13ссз35715 0.0 1026498
02:00+12ссз34735 0.0 1027278
05:00+12ссз23720 0.0 1027198
08:00+14с12650 0.0 1028343
11:00+16зсз22570 0.0 1029532
14:00+17зсз33565 0.0 1028570
17:00+17зсз33570 0.0 1027454
20:00+16сз22610 0.0 1026200
14 июня, пн
пн1423:00+15всв11685 0.0 102616
02:00+15юв23750 0.0 102454
05:00+14ю33810 0.0 102368
08:00+16ю35680 0.0 1023136
11:00+20зюз45570 0.0 1022469
14:00+19з456367 0.0 1021482
17:00+19з4567100 0.0 1021414
20:00+17ссз457983 0.0 1021248
15 июня, вт
вт1523:00+16с4686100 0.0 1021201
02:00+16с3581100 0.0 1022210
05:00+15всв3481100 0.0 1021216
08:00+15св3468100 0.0 1022282
11:00+17ссв2359100 0.0 1022448
14:00+18сз5359100 0.0 1022757
17:00+17ссз5462100 0.0 1021405
20:00+18ссв3464100 0.0 1020356
16 июня, ср
ср1623:00+16в3462100 0.0 101999
02:00+15в3474100 0.0 101897
05:00+15вюв3581100 0.0 101795
08:00+17вюв357511 0.0 1016145
11:00+21юв23635 0.0 1016441
14:00+23ссз22595 0.0 1014832
17:00+23ссз346119 0.0 1013877
20:00+22с34656 0.0 1012273
17 июня, чт
чт1723:00+22в466820 0.0 1012122
02:00+21вюв48785 0.0 1011163
05:00+19юв36845 0.0 1010108
08:00+21ююв4576100 0.0 1010135
11:00+24ю346451 0.2 1010440
14:00+20з578477 1.3 1011286
17:00+20з357849 0.3 1011357
20:00+19сз348248 0.3 1012146